Tracking 29089 objects as of 12-Jul-2024
HD Live streaming from Space Station
objects crossing your sky now

STARLINK-30187

Track STARLINK-30187 now!
10-day predictions
STARLINK-30187 is classified as:


NORAD ID: 57473
Int'l Code: 2023-107S
Perigee: 565.5 km
Apogee: 566.9 km
Inclination: 43.0 °
Period: 95.8 minutes
Semi major axis: 6937 km
RCS: Unknown
Launch date: July 28, 2023
Source: (TBD)
Launch site: AIR FORCE EASTERN TEST RANGE (AFETR)
Your satellite tracking list
Your tracking list is empty




NASA's NSSDC Master Catalog

Two Line Element Set (TLE):
1 57473U 23107S   24194.58708652 -.00000062  00000-0  10451-4 0  9994
2 57473  43.0023  26.6263 0000987 265.0477  95.0253 15.02541341 54098
Source of the keplerian elements: AFSPC